Location: Bowman Observatory
(41.0326°N, 73.6210°W)
Time: 15:30:07
(UTC-05:00)

Cosmos 2297 - Visible Passes

Search period start: 02 March 2015 00:00
Search period end: 12 March 2015 01:00
Orbit: 835 x 860 km, 71.0° (Epoch: 01 March)

Date Brightness Start Highest point End Pass type
(mag) Time Alt. Az. Time Alt. Az. Time Alt. Az.
02 Mar 5.9 05:49:53 10° SSE 05:54:42 31° ESE 05:59:41 10° NE visible
03 Mar 5.9 05:36:38 10° SSE 05:41:25 30° ESE 05:46:22 10° NE visible
04 Mar 5.8 05:23:23 10° SSE 05:28:09 30° ESE 05:33:03 10° NE visible
05 Mar 5.8 05:10:09 10° SSE 05:14:52 29° ESE 05:19:45 10° NE visible
06 Mar 5.8 04:56:54 10° SSE 05:01:35 29° ESE 05:06:26 10° NE visible
07 Mar 5.7 04:43:40 10° SSE 04:48:19 28° ESE 04:53:08 10° NE visible
08 Mar 5.7 05:30:25 10° SSE 05:35:02 27° ESE 05:39:48 10° NE visible
09 Mar 5.7 05:17:11 10° SSE 05:21:45 27° ESE 05:26:30 10° NE visible
10 Mar 5.7 05:03:56 10° SSE 05:08:29 26° ESE 05:13:11 10° NE visible
10 Mar 4.1 06:47:03 10° SW 06:52:27 44° WNW 06:57:52 10° NNE visible
11 Mar 5.7 04:50:42 10° SSE 04:55:12 26° ESE 04:59:52 10° NE visible
11 Mar 4.1 06:33:45 10° SW 06:39:09 45° WNW 06:44:36 10° NNE visible
